Station PTIM4 - 9099004 - Point Iroquois, MI Image indicating link to RSS feed of recent meteorological observations for station PTIM4


Conditions at PTIM4 as of
(2:30 am EDT)
0630 GMT on 06/13/2024:
     

Click on the graph icon in the table below to see a time series plot of the last five days of that observation.

5-day plot - Wind Direction Wind Direction (WDIR): E ( 90 deg true )
5-day plot - Wind Speed Wind Speed (WSPD):3.1 m/s
5-day plot - Wind Gust Wind Gust (GST):4.1 m/s
5-day plot - Atmospheric Pressure Atmospheric Pressure (PRES):1005.1 mb
5-day plot - Air Temperature Air Temperature (ATMP): 15.1 °C
5-day plot - Dew Point Dew Point (DEWP): 13.8 °C
5-day plot - Wind Speed at 10 Meters Wind Speed at 10 meters (WSPD10M): 3 m/s
5-day plot - Wind Speed at 20 Meters Wind Speed at 20 meters (WSPD20M): 4 m/s
5-day plot -  Wind Speed, Wind Gust and Atmospheric Pressure Combined plot of Wind Speed, Gust, and Air Pressure
NOS Water Level Observation Network Water Level
Previous observations
TIME
(EDT)
5-day plot - Wind Direction
WDIR
 
5-day plot - Wind Speed
WSPD
m/s
5-day plot - Wind Gust
GST
m/s
5-day plot - Wave Height
WVHT
m
5-day plot - Dominant Wave Period
DPD
sec
5-day plot - Average Wave Period
APD
sec
5-day plot - Mean Wave Direction
MWD
 
5-day plot - Atmospheric Pressure
PRES
mb
5-day plot - Pressure Tendency
PTDY
mb
5-day plot - Air Temperature
ATMP
°C
5-day plot - Water Temperature
WTMP
°C
5-day plot - Dew Point
DEWP
°C
5-day plot - Salinity
SAL
psu
5-day plot - Visibility
VIS
km
5-day plot - Tide (above MLLW)
TIDE
m
2024-06-13 02:24 am E 1.5 3.1----1005.1- 16.6- 15.3---
2024-06-13 02:18 amSSE 1.0 2.6----1005.2- 16.7- 15.5---
2024-06-13 02:12 am S 1.0 3.6----1005.3- 16.8- 15.7---
2024-06-13 02:06 amSSW 0.5 4.6----1005.3- 17.0- 15.7---
2024-06-13 02:00 amWSW 3.1 5.7----1005.5 +0.0------
2024-06-13 01:54 amWSW 2.6 7.7----1005.6-------
2024-06-13 01:48 am-------1005.7- 17.3- 15.0---
2024-06-13 01:42 am-------1005.7- 16.7- 15.0---
2024-06-13 01:36 am-------1005.8- 16.6- 14.8---
2024-06-13 01:30 amWSW 2.6 6.2----1005.8- 17.6- 13.9---
2024-06-13 01:24 amWSW 2.1 4.6----1006.1- 17.8- 12.7---
2024-06-13 01:18 am SE 1.5 3.6----1006.3- 16.8- 12.8---
2024-06-13 01:12 amESE 2.6 4.6----1006.3- 16.6- 12.9---
2024-06-13 01:06 am SE 1.0 3.6----1005.9- 15.5- 12.9---
2024-06-13 01:00 am-------1005.6- 14.6- 12.5---
2024-06-13 12:54 am-------1005.6- 15.8- 12.7---
2024-06-13 12:48 am E 2.6 3.6----1005.3- 14.2- 12.3---
2024-06-13 12:42 am E 2.6 4.1----1005.2- 15.5- 12.5---
2024-06-13 12:36 am E 1.0 3.1----1005.3- 16.6- 12.8---
2024-06-13 12:30 amESE 2.1 3.1----1005.3- 16.7- 12.8---
2024-06-13 12:24 am SE 2.1 2.6----1005.5- 16.7- 12.9---
2024-06-13 12:18 amESE 1.5 3.6----1005.6- 16.6- 12.9---
2024-06-13 12:12 amESE 2.6 3.6----1005.4- 16.5- 13.0---
2024-06-13 12:06 amESE 2.1 3.6----1005.5- 16.4- 13.2---
2024-06-13 12:00 amESE 1.5 2.6----1005.6- 16.4- 13.1---
2024-06-12 11:54 pm SE 2.1 2.6----1005.7- 16.5- 13.2---
2024-06-12 11:48 pm SE 2.1 3.1----1005.6-------
2024-06-12 11:42 pmESE 2.1 3.1----1005.5-------
2024-06-12 11:36 pmESE 2.6 4.6----1005.5-------
2024-06-12 11:30 pmESE 3.1 4.6------------
2024-06-12 11:24 pmESE 2.6 3.1------------
2024-06-12 11:18 pmESE 2.1 3.1----1005.5-------
2024-06-12 11:12 pmESE 1.5 2.6----1005.5-------
2024-06-12 11:06 pm SE 2.1 3.6----1005.5-------
2024-06-12 11:00 pm SE 1.5 2.6----1005.5 -0.7 18.1- 13.4---
2024-06-12 10:54 pmESE 1.5 3.6----1005.5- 18.4- 13.4---
2024-06-12 10:48 pm SE 1.5 3.1----1005.6- 18.7- 13.4---
2024-06-12 10:42 pm SE 2.1 4.6----1005.8- 19.0- 13.2---
2024-06-12 10:36 pm SE 1.5 3.1----1005.8- 19.0- 13.2---
2024-06-12 10:30 pm SE 1.0 3.1----1005.8- 19.2- 13.2---
2024-06-12 10:24 pm SE 1.5 4.6----1005.5- 19.3- 13.1---
2024-06-12 10:18 pm SE 1.5 3.6----1005.4- 19.3- 13.1---
2024-06-12 10:12 pm SE 1.5 3.1----1005.5- 18.7- 13.2---
2024-06-12 10:06 pmESE 2.1 4.1----1005.5- 17.1- 13.0---
2024-06-12 10:00 pmESE 2.1 3.1------------
2024-06-12 09:54 pmESE 2.6 3.1------------
2024-06-12 09:48 pmESE 2.1 3.6----1005.8-------
2024-06-12 09:42 pmESE 2.6 3.6----1005.9-------
2024-06-12 09:36 pmESE 2.6 3.1----1005.9-------
2024-06-12 09:30 pmESE 2.1 3.1----1005.8- 16.1- 13.0---
2024-06-12 09:24 pmESE 2.6 3.6----1005.6- 15.9- 12.6---
2024-06-12 09:18 pmESE 2.1 3.1----1005.5-------
2024-06-12 09:12 pm SE 1.5 3.1----1005.5-------
2024-06-12 09:06 pm SE 1.5 3.6----1005.7-------
2024-06-12 09:00 pmSSE 1.5 3.6------------
2024-06-12 08:54 pmSSE 1.0 3.1------------
2024-06-12 08:48 pmSSE 2.1 3.6----1005.7-------
2024-06-12 08:42 pm S 1.5 2.6----1006.0-------
2024-06-12 08:36 pm S 1.5 3.1----1006.0-------
2024-06-12 08:30 pm SW 0.5 4.6----1006.2-------
2024-06-12 08:24 pm S 1.0 3.6----1006.2-------
2024-06-12 08:18 pm S 1.0 3.1----1006.3- 21.0- 13.1---
2024-06-12 08:12 pm S 1.0 3.1----1006.3- 21.0- 13.1---
2024-06-12 08:06 pm S 1.0 5.1----1006.3- 21.0- 13.0---
2024-06-12 08:00 pm S 1.5 3.1----1006.2 -1.3------
2024-06-12 07:54 pmSSE 1.0 3.6----1006.3-------
2024-06-12 07:48 pm S 1.0 4.1----1006.4-------
2024-06-12 07:42 pm S 1.5 3.6----1006.4-------
2024-06-12 07:36 pmSSW 1.0 3.6----1006.6-------
2024-06-12 07:30 pm S 1.5 4.6----1006.6- 20.9- 13.1---
2024-06-12 07:24 pm S 1.5 3.6----1006.6- 21.0- 13.1---
2024-06-12 07:00 pm SW 1.5 4.1----1007.4 -0.4------
2024-06-12 06:54 pm S 2.1 5.7----1007.3-------
2024-06-12 06:48 pmSSW 1.5 6.7----1007.2-------
2024-06-12 06:42 pm S 1.0 3.6----1007.1-------
2024-06-12 06:36 pm S 2.1 5.1----1007.2-------
2024-06-12 06:30 pm S 2.1 4.6----1007.3- 23.0- 12.6---
2024-06-12 06:24 pm S 2.6 5.7----1007.3- 23.2- 12.5---
2024-06-12 06:18 pm S 1.0 4.6----1007.3-------
2024-06-12 06:12 pm S 1.0 3.6----1007.4-------
2024-06-12 06:06 pmSSW 2.1 4.6----1007.5-------
2024-06-12 06:00 pm-------1007.6 -0.4------
2024-06-12 05:54 pm-------1007.5-------
2024-06-12 05:48 pmWSW 2.6 4.1----1007.6-------
2024-06-12 05:42 pmWSW 1.5 4.1----1007.7-------
2024-06-12 05:36 pmWSW 2.1 4.1----1007.6-------
2024-06-12 05:30 pm-------1007.5- 25.4- 11.8---
2024-06-12 05:24 pm-------1007.5- 25.4- 11.4---
2024-06-12 05:18 pmSSW 2.6 6.2----1007.5- 25.9- 11.4---
2024-06-12 05:12 pmWSW 1.5 4.6----1007.5- 26.4- 11.3---
2024-06-12 05:06 pm SW 2.6 5.1----1007.5- 26.3- 11.4---
2024-06-12 05:00 pmWSW 2.6 6.2----1007.5 -0.9------
2024-06-12 04:54 pmWSW 1.5 4.1----1007.7-------
2024-06-12 04:48 pmWSW 2.1 8.2----1007.8-------
2024-06-12 04:42 pm SW 3.1 6.2----1007.8-------
2024-06-12 04:36 pmSSW 2.1 5.7----1007.8-------
2024-06-12 04:30 pmWSW 2.1 7.2----1007.7- 26.8-----
2024-06-12 04:24 pmWSW 4.1 7.7----1007.8- 26.2-----
2024-06-12 04:18 pmWSW 3.6 6.2----1007.9- 26.6- 11.0---
2024-06-12 04:12 pmWSW 2.6 6.2----1007.9- 26.6- 11.5---
2024-06-12 04:06 pm SW 3.1 7.7----1007.9- 26.6- 11.3---
2024-06-12 04:00 pmWSW 4.1 7.7----1007.8 -1.3------
2024-06-12 03:54 pmWSW 3.1 7.7----1007.8-------
2024-06-12 03:48 pmWSW 2.1 6.2----1007.7-------
2024-06-12 03:42 pmWSW 2.6 6.2----1007.8-------
2024-06-12 03:36 pmWSW 2.1 6.2----1007.9-------
2024-06-12 03:30 pmWSW 4.1 7.7----1008.0- 26.4- 10.7---
2024-06-12 03:24 pmWSW 2.6 8.2----1008.0-------
2024-06-12 03:18 pm W 4.6 8.8----1008.1-------
2024-06-12 03:12 pmWSW 2.6 5.7----1008.1-------
2024-06-12 03:06 pm SW 2.1 6.2----1008.1-------
2024-06-12 03:00 pm W 3.1 5.7----1008.0 -1.1------
2024-06-12 02:54 pmWSW 3.1 5.7----1008.1-------
2024-06-12 02:48 pmSSW 1.0 5.7----1008.2-------
2024-06-12 02:42 pmWSW 4.1 7.2----1008.2-------
2024-06-12 02:36 pmWSW 3.1 6.2----1008.4-------
2024-06-12 02:30 pmWSW 1.5 7.7----1008.5-------
2024-06-12 02:24 pmWSW 4.1 8.8----1008.5-------
2024-06-12 02:18 pmWSW 3.1 6.2----1008.5-------
2024-06-12 02:12 pm SW 2.6 4.1----1008.3-------
2024-06-12 02:06 pm NW 1.0 4.1----1008.4-------
2024-06-12 02:00 pm W 2.1 4.1----1008.4 -0.6------
2024-06-12 01:54 pmSSW 1.5 4.1----1008.4-------
2024-06-12 01:48 pm E 1.0 2.1----1008.6-------
2024-06-12 01:42 pm NE 1.0 1.5----1008.7-------
2024-06-12 01:36 pmNNW 2.1 3.1----1008.8-------
2024-06-12 01:30 pm NE 2.1 2.6----1008.8- 19.1- 12.5---
2024-06-12 01:24 pmNNW 1.0 2.6----1009.0- 19.5- 12.6---
2024-06-12 01:18 pm NE 1.5 2.1----1009.0-------
2024-06-12 01:12 pm- 0.0 2.1----1009.0-------
2024-06-12 01:06 pm E 0.5 2.6----1009.0-------
2024-06-12 01:00 pm-------1009.1 -0.3 19.8- 12.5---
2024-06-12 12:54 pm-------1009.2- 18.9- 12.2---
2024-06-12 12:48 pm E 1.5 1.5----1009.2-------
2024-06-12 12:42 pm E 1.0 1.5----1009.2-------
2024-06-12 12:36 pm- 0.0 0.5----1009.4-------
2024-06-12 12:30 pm- 0.0 1.5----1009.4- 18.7-----
2024-06-12 12:24 pm NE 1.0 2.1----1009.3- 17.9-----
2024-06-12 12:18 pmENE 1.5 2.1----1009.3-------
2024-06-12 12:12 pm E 2.1 3.6----1009.3-------
2024-06-12 12:06 pm E 1.5 5.1----1009.1-------
2024-06-12 12:00 pm-------1009.1 -0.8 18.7- 11.8---
2024-06-12 11:54 am-------1009.1- 18.0- 11.8---
2024-06-12 11:48 amESE 2.6 3.1----1009.1- 17.8- 11.7---
2024-06-12 11:42 am E 2.6 3.6----1009.2- 17.1- 11.8---
2024-06-12 11:36 am E 3.6 4.6----1009.0- 16.4- 11.5---
2024-06-12 11:30 amESE 2.6 4.1----1009.1- 16.9- 11.9---
2024-06-12 11:24 amESE 2.1 4.1----1009.1- 17.6- 11.9---
2024-06-12 11:18 amESE 2.1 4.6----1009.1- 17.8- 12.0---
2024-06-12 11:12 am E 3.1 4.6----1009.1- 17.0- 11.5---
2024-06-12 11:06 am E 3.6 5.1----1009.0- 16.4- 11.5---
2024-06-12 11:00 amESE 2.1 4.6----1009.0 -1.0------
2024-06-12 10:54 amESE 2.6 4.1----1009.1-------
2024-06-12 10:48 amESE 3.1 4.6----1009.2-------
2024-06-12 10:42 am E 3.1 4.6----1009.2-------
2024-06-12 10:36 am E 2.6 4.1----1009.2-------
2024-06-12 10:30 am E 2.6 3.6----1009.3- 16.3- 11.3---
2024-06-12 10:24 am E 2.6 4.1----1009.3- 16.4- 10.9---
2024-06-12 10:18 am E 1.5 3.1----1009.4-------
2024-06-12 10:12 am E 2.1 3.6----1009.4-------
2024-06-12 10:06 am SE 1.5 3.1----1009.4-------
2024-06-12 10:00 am E 2.1 3.6----1009.4 -0.9 16.0- 11.3---
2024-06-12 09:54 am E 2.1 3.6----1009.4- 15.9- 10.9---
2024-06-12 09:48 am E 2.6 3.6----1009.5-------
2024-06-12 09:42 am E 2.6 3.6----1009.5-------
2024-06-12 09:36 am E 3.1 4.1----1009.6-------
2024-06-12 09:30 amENE 3.1 4.1----1009.7- 14.2- 10.2---
2024-06-12 09:24 am E 2.6 3.6----1009.7- 14.6- 10.3---
2024-06-12 09:18 amESE 1.5 3.6----1009.8- 14.7- 10.6---
2024-06-12 09:12 am E 2.6 3.6----1009.8- 14.0- 10.3---
2024-06-12 09:06 am E 3.1 3.6----1009.9- 13.9- 10.2---
2024-06-12 09:00 amESE 2.6 3.1----1009.9 +0.0 14.2- 10.1---
2024-06-12 08:54 am E 2.6 3.6----1009.9- 13.7- 10.1---
2024-06-12 08:48 am-------1010.0- 13.7- 9.9---
2024-06-12 08:42 am-------1010.0- 13.5- 9.9---
2024-06-12 08:36 am-------1009.9- 13.2- 9.9---
2024-06-12 08:30 am E 3.6 4.6----1009.9- 13.1- 10.1---
2024-06-12 08:24 amESE 3.6 6.2----1009.9- 13.0- 10.1---
2024-06-12 08:18 am E 4.6 5.7----1009.9- 12.8- 9.9---
2024-06-12 08:12 am E 3.6 5.1----1009.9- 12.9- 9.9---
2024-06-12 08:06 amESE 3.6 5.1----1010.0- 13.0- 10.0---
2024-06-12 08:00 amESE 3.1 5.1----1010.0 +0.0 13.1- 9.6---
2024-06-12 07:54 amESE 3.6 5.1----1010.1- 12.9- 9.8---
2024-06-12 07:48 amESE 3.6 5.1----1010.0-------
2024-06-12 07:42 amESE 3.1 4.6----1010.1-------
2024-06-12 07:36 amESE 3.6 4.6----1010.1-------
2024-06-12 07:30 amESE 3.1 4.1----1010.2- 12.7- 9.4---
2024-06-12 07:24 amESE 2.1 3.1----1010.3- 12.8- 9.7---
2024-06-12 07:18 amESE 2.1 3.1----1010.3- 12.5- 9.5---
2024-06-12 07:12 amESE 1.5 2.6----1010.4- 12.1- 9.3---
2024-06-12 07:06 amESE 1.0 2.6----1010.4- 12.0- 9.2---
2024-06-12 07:00 am SE 2.1 3.6----1010.3 +0.0 12.0- 9.1---
2024-06-12 06:54 amESE 3.1 5.1----1010.2- 12.0- 9.5---
2024-06-12 06:48 amESE 2.6 3.1----1010.2-------
2024-06-12 06:42 amESE 2.6 3.6----1010.3-------
2024-06-12 06:36 am SE 2.6 3.6----1010.2-------
2024-06-12 06:30 amESE 2.6 4.1----1010.3- 12.0- 9.8---
2024-06-12 06:24 am E 3.6 4.1----1010.3- 12.0- 9.8---
2024-06-12 06:18 amESE 2.6 4.1----1010.1-------
2024-06-12 06:12 amESE 1.5 3.6----1010.1-------
2024-06-12 06:06 amESE 2.6 4.1----1010.0-------
2024-06-12 06:00 amESE 2.6 4.1----1010.0 -0.6 11.8- 9.8---
2024-06-12 05:54 amESE 1.5 2.6----1010.1- 11.8- 9.5---
2024-06-12 05:48 amESE 2.6 4.6----1010.1-------
2024-06-12 05:42 amESE 3.1 4.6----1009.9-------
2024-06-12 05:36 amESE 2.1 3.1----1010.0-------
2024-06-12 05:30 amESE 2.6 3.1----1010.0- 11.8- 9.8---
2024-06-12 05:24 amESE 2.6 5.1----1010.0- 11.9- 9.5---
2024-06-12 05:18 amESE 2.6 4.6----1009.8- 11.9- 9.4---
2024-06-12 05:12 amESE 3.1 4.6----1009.8- 11.9- 9.7---
2024-06-12 05:06 amESE 2.6 4.1----1010.0- 11.9- 10.0---
2024-06-12 05:00 am SE 2.1 3.6----1010.2 -0.6------
2024-06-12 04:54 amESE 2.6 3.6----1010.2-------
2024-06-12 04:48 amESE 2.1 3.6----1010.1-------
2024-06-12 04:42 amESE 2.6 4.1----1010.2-------
2024-06-12 04:36 amESE 2.6 4.1----1010.2-------
2024-06-12 04:30 amESE 2.6 3.6----1010.2- 11.7- 9.9---
2024-06-12 04:24 amESE 2.1 3.6----1010.2- 11.6- 9.9---
2024-06-12 04:18 amESE 2.1 3.6----1010.2- 11.6- 9.9---
2024-06-12 04:12 amESE 2.1 3.1----1010.3- 11.6- 9.9---
2024-06-12 04:06 amESE 2.1 3.1----1010.3- 11.6- 10.0---
2024-06-12 04:00 amESE 2.6 3.6----1010.3 -1.1------
2024-06-12 03:54 amESE 2.6 3.6----1010.4-------
2024-06-12 03:48 amESE 2.6 4.1----1010.4- 12.1- 9.7---
2024-06-12 03:42 amESE 3.1 4.1----1010.5- 12.1- 9.4---
2024-06-12 03:36 amESE 2.6 4.6----1010.5- 12.1- 9.5---
2024-06-12 03:30 amESE 3.1 4.6----1010.6- 12.1- 9.5---
2024-06-12 03:24 amESE 3.1 4.6----1010.6- 12.1- 9.5---
2024-06-12 03:18 am E 4.1 5.1----1010.6- 12.1- 9.5---
2024-06-12 03:12 am E 4.1 5.1----1010.6- 12.1- 9.4---
2024-06-12 03:06 am E 3.6 4.6----1010.5- 12.1- 9.3---
2024-06-12 03:00 amESE 2.6 4.1----1010.6 -1.1 12.2- 8.8---
2024-06-12 02:54 amESE 3.1 4.6----1010.5- 12.3- 8.8---